Hlavní strana
METAR-TAF:

METAR-TAF

Letiště :

Franklin Municipal-John Beverly Rose Airport

Franklin, Virginie, Spojené státy americké

zeměpisná šířka: 36-42N, zeměpisná délka: 076-54W, výška: 12 m

Aktuální stav počasí

Zpráva byla vytvořena před 23 minutami, v 04:35 UTC
Bezvětří
Teplota 9°C
Vlhkost vzduchu 93%
Tlak 1026 hPa
Viditelnost: 16.1 km
Zataženo ve výšce 6000 ft

METAR: KFKN 310435Z AUTO 00000KT 10SM OVC060 09/08 A3030 RMK AO2 T00850079

Čas: 00:58 (04:58 UTC)


TAF: chybějící

Stav a předpovědi počasí z více než 4 000 letišť (zprávy METAR a TAF).

Červené a žluté tečky na mapě představují dostupné meteorologické stanice.

Když kurzor umístíte na tečku, zobrazí se název stanice.

Pak kliknutím zobrazíte stav a předpověď počasí.

Chcete-li změnit mapu, kliknutím na zelené tlačítko se znaménkem +mapu přiblížíte, kliknutím na zelené tlačítko se znaménkem – mapu oddálíte a kliknutím na zelené šipky přejdete na sousední mapy.


METAR-TAF: